Weather reports worldwide

Advertisment
Lelystad aws, Netherlands (6269): temperature & dewpoint: 09.08.2020 21:00:00 - 15.08.2020 21:00:00 (CEST)Lelystad aws, Netherlands (6269): temperature 5cm: 09.08.2020 21:00:00 - 15.08.2020 21:00:00 (CEST)Lelystad aws, Netherlands (6269): wind speed & gusts: 09.08.2020 21:00:00 - 15.08.2020 21:00:00 (CEST)Lelystad aws, Netherlands (6269): wind direction: 09.08.2020 21:00:00 - 15.08.2020 21:00:00 (CEST)Lelystad aws, Netherlands (6269): reduced air pressure: 09.08.2020 21:00:00 - 15.08.2020 21:00:00 (CEST)Lelystad aws, Netherlands (6269): visibility: 09.08.2020 21:00:00 - 15.08.2020 21:00:00 (CEST)Lelystad aws, Netherlands (6269): precipitation: 09.08.2020 21:00:00 - 15.08.2020 21:00:00 (CEST)
Date & Time tt [°C] td [°C] tt 5cm [°C] ff [km/h] ff [kn] fx [km/h] fx [kn] dd ppp [hPa] vv [km] rr [mm]
15.08.2020 21:00:00 23,6 20,6 23,4 13 7 14 8 NE 1013,9 6 0,0
15.08.2020 20:00:00 24,2 19,9 24,3 13 7 14 8 NE 1014,2 9 0,0
15.08.2020 19:00:00 24,6 19,2 24,5 2 1 11 6 - 1013,8 10 0,0
15.08.2020 18:00:00 24,9 19,1 25,3 8 4 11 6 NNW 1013,9 10 0,0
15.08.2020 17:00:00 25,1 18,8 25,8 11 6 18 10 NNW 1014,1 10 0,0
15.08.2020 16:00:00 26,1 18,7 28,2 5 3 11 6 SW 1014,4 10 0,0
15.08.2020 15:00:00 25,6 19,1 28,7 4 2 14 8 - 1014,9 8 0,0
15.08.2020 14:00:00 25,4 20,0 28,4 8 4 14 8 S 1015,3 7 0,0
15.08.2020 13:00:00 22,7 19,5 23,9 5 3 14 8 SW 1015,4 4,4 0,0
15.08.2020 12:00:00 21,9 19,8 22,7 4 2 14 8 - 1015,4 3,5 0,0
15.08.2020 11:00:00 21,3 19,7 22,5 9 5 14 8 SW 1015,2 3,0 0,0
15.08.2020 10:00:00 20,9 19,5 21,1 8 4 14 8 SW 1015,0 2,8 0,0
15.08.2020 09:00:00 20,9 19,7 21,2 11 6 14 8 SW 1014,9 2,8 0,0
15.08.2020 08:00:00 20,3 19,5 20,3 9 5 14 8 SW 1014,4 2,4 0,0
15.08.2020 07:00:00 20,1 19,4 19,9 8 4 11 6 SSW 1014,1 2,0 0,0
15.08.2020 06:00:00 19,9 19,3 19,5 8 4 14 8 SSW 1013,8 2,3 0,0
15.08.2020 05:00:00 19,9 19,6 19,9 9 5 14 8 SW 1013,6 1,5 0,0
15.08.2020 04:00:00 19,9 19,5 19,5 8 4 11 6 SW 1013,8 1,4 0,0
15.08.2020 03:00:00 20,0 19,5 19,6 5 3 11 6 WSW 1013,7 2,1 0,0
15.08.2020 02:00:00 20,0 19,0 19,5 8 4 11 6 SSW 1014,0 7 0,0
15.08.2020 01:00:00 19,5 18,5 18,2 2 1 7 4 S 1014,0 10 0,0
15.08.2020 00:00:00 19,1 18,1 18,0 4 2 7 4 SSE 1013,9 10 0,0
14.08.2020 23:00:00 18,8 18,1 17,7 4 2 11 6 - 1013,7 10 0,0
14.08.2020 22:00:00 19,1 18,0 18,4 4 2 14 8 - 1013,4 10 0,0
14.08.2020 21:00:00 19,8 17,4 19,1 8 4 22 12 N 1012,9 10 0,2
14.08.2020 20:00:00 21,1 18,3 20,0 9 5 58 31 ENE 1013,2 10 4,0
14.08.2020 19:00:00 22,7 18,9 22,9 9 5 36 19 - 1012,5 10 0,0
14.08.2020 18:00:00 25,6 20,2 25,2 15 8 25 14 NNE 1011,8 10 0,0
14.08.2020 17:00:00 26,4 20,4 26,9 16 9 22 12 NNE 1011,5 10 0,0
14.08.2020 16:00:00 27,0 20,6 26,5 13 7 25 14 N 1011,7 10 0,0
14.08.2020 15:00:00 26,3 20,3 29,0 5 3 22 12 - 1012,0 10 0,0
14.08.2020 14:00:00 26,8 19,4 28,7 4 2 18 10 - 1012,1 10 0,0
14.08.2020 13:00:00 26,6 20,5 28,7 4 2 11 6 - 1012,3 8 0,0
14.08.2020 12:00:00 25,1 20,7 27,1 9 5 22 12 ENE 1012,6 9 0,0
14.08.2020 11:00:00 23,4 20,3 24,3 13 7 25 14 ENE 1012,8 10 0,0
14.08.2020 10:00:00 23,3 20,2 23,9 13 7 22 12 E 1012,2 7 0,0
14.08.2020 09:00:00 22,0 20,0 21,8 9 5 18 10 SE 1011,6 9 0,0
14.08.2020 08:00:00 20,2 18,9 19,8 2 1 11 6 - 1011,7 10 0,0
14.08.2020 07:00:00 19,2 18,4 18,7 5 3 7 4 NNE 1012,2 10 0,0
14.08.2020 06:00:00 19,4 18,3 18,9 5 3 11 6 SSE 1011,9 10 0,0
14.08.2020 05:00:00 19,7 18,1 19,4 11 6 29 16 NE 1011,8 10 0,1
14.08.2020 04:00:00 21,0 19,1 20,7 15 8 25 14 ENE 1012,1 10 0,3
14.08.2020 03:00:00 21,9 19,8 21,6 9 5 14 8 E 1011,8 10 0,0
14.08.2020 02:00:00 22,4 19,9 22,0 9 5 14 8 SE 1011,6 10 0,0
14.08.2020 01:00:00 22,6 19,3 22,0 9 5 18 10 SSE 1011,7 10 0,0
14.08.2020 00:00:00 23,0 19,4 22,4 8 4 22 12 SSE 1011,5 10 0,0
13.08.2020 23:00:00 23,6 19,3 23,1 22 12 36 19 ESE 1011,6 10 0,0
13.08.2020 22:00:00 25,4 18,9 24,3 9 5 18 10 S 1010,8 10 0,0
13.08.2020 21:00:00 26,4 20,5 25,0 5 3 11 6 E 1010,6 10 0,0
13.08.2020 20:00:00 27,7 20,0 26,5 9 5 11 6 NW 1010,4 10 0,0
13.08.2020 19:00:00 28,3 19,3 27,5 9 5 14 8 NNW 1010,4 10 0,0
13.08.2020 18:00:00 29,5 19,5 29,0 15 8 22 12 NNW 1010,2 10 0,0
13.08.2020 17:00:00 32,0 18,9 33,9 8 4 18 10 S 1010,5 10 0,0
13.08.2020 16:00:00 31,2 19,0 33,3 8 4 18 10 ESE 1010,9 10 0,0
13.08.2020 15:00:00 30,8 19,6 31,9 8 4 22 12 S 1011,2 10 0,0
13.08.2020 14:00:00 29,6 18,8 31,4 5 3 18 10 SE 1011,6 10 0,0
13.08.2020 13:00:00 28,6 19,0 30,3 8 4 14 8 E 1011,7 10 0,0
13.08.2020 12:00:00 27,6 18,4 29,7 5 3 18 10 E 1011,8 10 0,0
13.08.2020 11:00:00 26,0 18,4 27,7 8 4 14 8 NE 1011,9 10 -
13.08.2020 10:00:00 24,7 18,0 25,9 8 4 14 8 E 1012,0 10 -
13.08.2020 09:00:00 22,7 18,2 23,1 8 4 - - ENE 1012,1 10 0,0
13.08.2020 08:00:00 21,0 18,0 - 5 3 11 6 NE 1011,9 10 0,0
13.08.2020 07:00:00 18,2 16,7 17,3 4 2 11 6 - 1012,0 10 0,0
13.08.2020 06:00:00 18,1 16,6 17,0 11 6 14 8 ENE 1011,6 10 0,0
13.08.2020 05:00:00 18,8 16,8 17,7 8 4 14 8 NE 1011,9 10 0,0
13.08.2020 04:00:00 19,0 16,7 17,9 9 5 14 8 NE 1011,8 10 0,0
13.08.2020 03:00:00 19,9 16,7 18,7 4 2 14 8 - 1012,2 10 0,0
13.08.2020 02:00:00 19,6 16,9 18,7 13 7 14 8 ENE 1012,2 10 0,0
13.08.2020 01:00:00 20,3 17,8 19,1 8 4 11 6 ENE 1012,6 10 0,0
13.08.2020 00:00:00 23,7 17,1 20,2 4 2 11 6 - 1013,1 10 0,0
12.08.2020 23:00:00 26,3 16,2 24,3 11 6 14 8 ESE 1013,3 10 0,0
12.08.2020 22:00:00 27,0 16,7 22,0 5 3 18 10 ENE 1012,9 10 0,0
12.08.2020 21:00:00 26,8 17,0 25,2 9 5 14 8 E 1012,3 10 0,0
12.08.2020 20:00:00 29,8 16,8 28,2 9 5 18 10 NE 1012,1 10 0,0
12.08.2020 19:00:00 30,4 19,5 30,2 13 7 18 10 N 1012,3 10 0,0
12.08.2020 18:00:00 32,0 17,6 31,8 11 6 32 18 ENE 1012,9 10 0,0
12.08.2020 17:00:00 32,2 17,0 32,4 9 5 22 12 E 1013,2 10 0,0
12.08.2020 16:00:00 31,9 16,5 32,5 13 7 32 18 E 1013,7 10 0,0
12.08.2020 15:00:00 31,3 18,9 32,3 13 7 22 12 NE 1014,0 10 0,0
12.08.2020 14:00:00 30,1 18,6 30,9 9 5 18 10 NNE 1014,5 10 0,0
12.08.2020 13:00:00 29,8 18,5 30,8 9 5 18 10 E 1014,8 10 0,0
12.08.2020 12:00:00 28,6 19,1 29,6 9 5 14 8 E 1015,0 10 0,0
12.08.2020 11:00:00 27,0 19,6 28,1 9 5 14 8 ESE 1015,0 10 0,0
12.08.2020 10:00:00 25,8 19,6 26,7 8 4 14 8 E 1015,2 10 0,0
12.08.2020 09:00:00 23,8 19,6 24,1 8 4 11 6 ENE 1015,0 10 0,0
12.08.2020 08:00:00 22,7 19,5 22,1 5 3 11 6 E 1014,9 10 0,0
12.08.2020 07:00:00 21,0 18,9 19,4 4 2 7 4 - 1015,2 10 0,0
12.08.2020 06:00:00 20,9 19,2 19,8 5 3 14 8 ENE 1015,0 10 0,0
12.08.2020 05:00:00 21,1 19,5 20,3 9 5 14 8 E 1014,5 10 0,0
12.08.2020 04:00:00 21,3 19,7 20,9 8 4 14 8 NNE 1014,8 10 0,0
12.08.2020 03:00:00 21,9 20,1 21,3 9 5 18 10 E 1015,1 10 0,1
12.08.2020 02:00:00 22,4 18,8 21,6 16 9 29 16 SE 1014,9 10 0,3
12.08.2020 01:00:00 23,9 18,1 22,6 9 5 32 18 S 1015,1 10 0,4
12.08.2020 00:00:00 25,2 17,0 24,3 22 12 22 12 SE 1015,4 10 0,0
11.08.2020 23:00:00 24,1 20,1 22,1 4 2 7 4 - 1015,3 10 0,0
11.08.2020 22:00:00 24,0 20,1 22,8 5 3 14 8 E 1014,7 10 0,0
11.08.2020 21:00:00 25,7 19,9 24,9 8 4 14 8 NE 1014,1 10 0,0
11.08.2020 20:00:00 26,8 18,7 26,2 15 8 22 12 SE 1014,1 10 0,0
11.08.2020 19:00:00 28,6 18,3 27,0 9 5 32 18 ENE 1014,3 10 0,0
11.08.2020 18:00:00 29,6 19,8 28,7 15 8 22 12 NE 1013,7 10 0,0
11.08.2020 17:00:00 32,3 18,3 32,0 15 8 29 16 ENE 1014,1 10 0,0
11.08.2020 16:00:00 32,0 18,9 31,3 13 7 32 18 ENE 1014,6 10 0,0
11.08.2020 15:00:00 31,9 19,6 31,6 13 7 25 14 E 1014,9 10 0,0
11.08.2020 14:00:00 31,5 19,2 31,4 16 9 25 14 E 1015,2 10 0,0
11.08.2020 13:00:00 29,7 19,0 30,6 15 8 29 16 E 1015,5 10 0,0
11.08.2020 12:00:00 27,9 19,3 28,7 16 9 29 16 E 1015,6 10 0,0
11.08.2020 11:00:00 26,2 18,9 26,7 16 9 29 16 E 1015,6 10 0,0
11.08.2020 10:00:00 24,7 18,0 25,1 18 10 25 14 E 1015,6 10 0,0
11.08.2020 09:00:00 23,2 17,7 23,4 15 8 25 14 ENE 1015,8 10 0,0
11.08.2020 08:00:00 21,8 17,7 21,5 15 8 22 12 ENE 1015,6 10 0,0
11.08.2020 07:00:00 19,9 17,1 19,1 13 7 18 10 ENE 1015,5 10 0,0
11.08.2020 06:00:00 19,2 16,7 18,3 9 5 18 10 NE 1015,4 10 0,0
11.08.2020 05:00:00 19,4 16,4 18,3 13 7 18 10 NE 1015,4 10 0,0
11.08.2020 04:00:00 19,9 16,2 18,6 9 5 18 10 ENE 1015,5 10 0,0
11.08.2020 03:00:00 19,9 16,4 18,6 11 6 14 8 ENE 1015,9 10 0,0
11.08.2020 02:00:00 19,6 16,5 18,4 15 8 14 8 ENE 1015,7 10 0,0
11.08.2020 01:00:00 20,4 16,8 18,4 13 7 11 6 NE 1015,8 10 0,0
11.08.2020 00:00:00 22,4 17,2 19,8 13 7 14 8 ENE 1015,6 10 0,0
10.08.2020 23:00:00 22,3 17,6 20,3 15 8 14 8 ENE 1015,6 10 0,0
10.08.2020 22:00:00 24,7 18,2 21,2 11 6 11 6 NE 1015,1 10 0,0
10.08.2020 21:00:00 26,9 18,5 24,7 9 5 11 6 NE 1014,5 10 0,0
10.08.2020 20:00:00 27,2 18,3 26,0 13 7 22 12 ENE 1014,2 10 0,0
10.08.2020 19:00:00 29,9 16,9 29,0 18 10 29 16 ENE 1013,8 10 0,0
10.08.2020 18:00:00 31,7 16,8 31,4 16 9 29 16 E 1014,1 10 0,0
10.08.2020 17:00:00 31,8 15,9 31,8 18 10 29 16 E 1014,5 10 0,0
10.08.2020 16:00:00 31,8 17,3 31,7 15 8 29 16 ENE 1014,8 10 0,0
10.08.2020 15:00:00 30,8 18,6 31,3 15 8 32 18 ENE 1015,1 10 0,0
10.08.2020 14:00:00 30,0 17,9 30,6 16 9 36 19 E 1015,4 10 0,0
10.08.2020 13:00:00 29,7 18,5 30,5 16 9 32 18 ENE 1015,6 10 0,0
10.08.2020 12:00:00 29,1 19,5 29,5 15 8 25 14 E 1015,7 10 0,0
10.08.2020 11:00:00 27,0 17,9 27,7 15 8 25 14 E 1015,8 10 0,0
10.08.2020 10:00:00 25,4 18,1 26,2 13 7 25 14 ENE 1015,8 10 0,0
10.08.2020 09:00:00 22,9 18,1 22,9 16 9 22 12 NE 1015,8 10 0,0
10.08.2020 08:00:00 20,4 17,3 20,5 8 4 14 8 NE 1016,0 10 0,0
10.08.2020 07:00:00 18,4 16,4 17,7 15 8 18 10 NE 1016,1 10 0,0
10.08.2020 06:00:00 16,8 15,6 16,1 9 5 14 8 NE 1016,0 10 0,0
10.08.2020 05:00:00 17,2 15,7 16,4 13 7 14 8 ENE 1016,1 10 0,0
10.08.2020 04:00:00 18,0 15,8 17,1 11 6 18 10 ENE 1016,4 10 0,0
10.08.2020 03:00:00 18,4 16,0 17,3 11 6 14 8 ENE 1016,3 10 0,0
10.08.2020 02:00:00 19,3 16,4 17,9 11 6 14 8 ENE 1016,5 10 0,0
10.08.2020 01:00:00 20,3 17,2 19,1 16 9 14 8 NE 1016,3 10 0,0
10.08.2020 00:00:00 20,9 17,1 19,9 16 9 22 12 NE 1016,4 10 0,0
09.08.2020 23:00:00 22,4 17,6 21,4 18 10 22 12 NE 1016,3 10 0,0
09.08.2020 22:00:00 23,3 16,8 22,1 16 9 18 10 NE 1016,4 10 0,0
09.08.2020 21:00:00 24,7 18,3 23,5 15 8 22 12 NE 1016,3 10 0,0

tt = temperature
td = dewpoint
tt 5cm = temperature 5cm
ff = wind speed
fx = gusts
dd = wind direction
ppp = reduced air pressure
vv = visibility
rr = precipitation

Next stations